Weather History for Panama City, FL

Change the Weather History Date:

Friday, November 8, 2013

  Actual Average Record
Temperature  
Mean Temperature 55 °F -  
Max Temperature 67 °F - 80 °F (2011)
Min Temperature 42 °F - 36 °F (2010)
Degree Days  
Heating Degree Days 10    
Cooling Degree Days 0    
Growing Degree Days 4 (Base 50)    
Moisture  
Dew Point 40 °F    
Average Humidity 65    
Maximum Humidity 93    
Minimum Humidity 37    
Precipitation  
Precipitation 0.00 in - 0.00 in (2014)
Sea Level Pressure  
Sea Level Pressure 30.23 in    
Wind  
Wind Speed 9 mph (North)    
Max Wind Speed 18 mph    
Max Gust Speed 31 mph    
Visibility 10 miles    
Events      
T = Trace of Precipitation, MM = Missing Value Source: NWS Daily Summary

Daily Weather History Graph

Daily Weather History Graph

Search for Another Location

Airport:

Trip Planner

Search our weather history database for the weather conditions in past years. The results will help you decide how hot, cold, wet, or windy it might be!

Date:

Astronomy

Nov. 08, 2013 Rise Set
Actual Time 7:03 AM EST 5:50 PM EST
Civil Twilight 6:38 AM EST 6:15 PM EST
Nautical Twilight 6:09 AM EST 6:44 PM EST
Astronomical Twilight 5:41 AM EST 7:12 PM EST
Moon 11:58 AM EST (11/8) 11:09 PM EST (11/8)
Length of Visible Light 11h 37m
Length of Day
10h 46m
Waxing Crescent, 33% of the Moon is Illuminated
Nov 8
Waxing Crescent
Nov 10
First Quarter
Nov 17
Full
Nov 25
Last Quarter
Dec 2
New

Hourly Weather History & Observations

Time (EST) Temp. Windchill Dew Point Humidity Pressure Visibility Wind Dir Wind Speed Gust Speed Precip Events Conditions
12:53 AM 50.0 °F - 42.1 °F 74% 30.22 in 10.0 mi NNW 10.4 mph - N/A   Clear
1:53 AM 48.0 °F - 41.0 °F 77% 30.21 in 10.0 mi NNW 10.4 mph - N/A   Clear
2:53 AM 46.9 °F - 39.9 °F 77% 30.20 in 10.0 mi NNW 11.5 mph - N/A   Clear
3:53 AM 46.0 °F 41.0 °F 39.0 °F 76% 30.21 in 10.0 mi North 10.4 mph - N/A   Clear
4:53 AM 45.0 °F 40.6 °F 39.0 °F 80% 30.22 in 10.0 mi North 8.1 mph - N/A   Clear
5:53 AM 43.0 °F 39.5 °F 37.9 °F 82% 30.24 in 10.0 mi North 5.8 mph - N/A   Clear
6:53 AM 43.0 °F 38.8 °F 37.0 °F 80% 30.26 in 10.0 mi NNW 6.9 mph - N/A   Clear
7:53 AM 46.0 °F 42.5 °F 37.0 °F 71% 30.28 in 10.0 mi North 6.9 mph - N/A   Clear
8:53 AM 50.0 °F - 37.0 °F 61% 30.29 in 10.0 mi North 9.2 mph - N/A   Clear
9:53 AM 54.0 °F - 37.0 °F 53% 30.29 in 10.0 mi NNE 12.7 mph 21.9 mph N/A   Clear
10:53 AM 57.9 °F - 37.0 °F 46% 30.29 in 10.0 mi NNE 18.4 mph 25.3 mph N/A   Clear
11:53 AM 61.0 °F - 37.9 °F 42% 30.26 in 10.0 mi NNE 11.5 mph - N/A   Clear
12:53 PM 63.0 °F - 37.9 °F 40% 30.23 in 10.0 mi North 12.7 mph 19.6 mph N/A   Clear
1:53 PM 66.0 °F - 39.0 °F 37% 30.21 in 10.0 mi North 13.8 mph 19.6 mph N/A   Clear
2:53 PM 66.9 °F - 39.9 °F 37% 30.19 in 10.0 mi North 11.5 mph 25.3 mph N/A   Clear
3:53 PM 66.9 °F - 41.0 °F 39% 30.19 in 10.0 mi NNE 11.5 mph - N/A   Clear
4:53 PM 64.0 °F - 41.0 °F 43% 30.19 in 10.0 mi North 10.4 mph - N/A   Clear
5:53 PM 57.0 °F - 43.0 °F 59% 30.21 in 10.0 mi North 4.6 mph - N/A   Clear
6:53 PM 52.0 °F - 44.1 °F 74% 30.21 in 10.0 mi North 4.6 mph - N/A   Clear
7:53 PM 48.9 °F - 45.0 °F 86% 30.23 in 10.0 mi Calm Calm - N/A   Clear
8:53 PM 46.0 °F - 44.1 °F 93% 30.24 in 10.0 mi Calm Calm - N/A   Clear
9:53 PM 46.0 °F 43.9 °F 44.1 °F 93% 30.25 in 10.0 mi NNE 4.6 mph - N/A   Clear
10:53 PM 48.9 °F - 43.0 °F 80% 30.25 in 10.0 mi NNE 6.9 mph - N/A   Clear
11:53 PM 48.9 °F - 43.0 °F 80% 30.24 in 10.0 mi NE 5.8 mph - N/A   Clear